Regional Weather Roundup
Issued by NWS

Home | Current Version | Previous Version | Graphics & Text | Print | Product List | Glossary On
Versions: 1 2 3 4 5 6 7 8 9 10 11 12 13 14 15 16 17 18 19 20 21 22 23 24 25 26 27 28 29 30 31 32 33 34 35 36 37 38 39 40 41 42 43 44 45 46 47 48 49 50
000
ASUS45 KBOI 031810
RWRID

IDAHO REGIONAL WEATHER ROUNDUP
NATIONAL WEATHER SERVICE BOISE ID
1200 PM MDT MON AUG 03 2015

NOTE: "FAIR" INDICATES FEW OR NO CLOUDS BELOW 12000 FEET
WITH NO SIGNIFICANT WEATHER AND/OR OBSTRUCTIONS TO VISIBILITY

IDZ012-014-031900-
SOUTHWEST IDAHO


CITY           SKY/WX    TMP DP  RH WIND       PRES   REMARKS
BOISE          CLOUDY    85  47  26 E6        29.93S
CALDWELL       CLOUDY    88  48  25 W7        29.92R
MOUNTAIN HOME  CLOUDY    83  46  26 CALM      29.94S
$$

IDZ016-017-031900-
SOUTHCENTRAL IDAHO


CITY           SKY/WX    TMP DP  RH WIND       PRES   REMARKS
BURLEY         CLOUDY    78  49  35 W10       30.01S
JEROME         CLOUDY    77  47  34 W6        30.02R
TWIN FALLS     CLOUDY    80  49  33 NW6       30.01R
$$

IDZ019>023-031900-
SOUTHEAST IDAHO


CITY           SKY/WX    TMP DP  RH WIND       PRES   REMARKS
IDAHO FALLS    CLOUDY    76  51  41 S13       30.05R
POCATELLO      MOSUNNY   76  52  43 S22G28    30.05R
REXBURG        CLOUDY    76  49  38 SW9       30.06R
$$

IDZ006-010-011-018-031-032-031900-
CENTRAL IDAHO MOUNTAINS


CITY           SKY/WX    TMP DP  RH WIND       PRES   REMARKS
MCCALL         PTSUNNY   74  45  35 VRB3      30.02S
HAILEY         CLOUDY    70  48  46 SE6       30.07R
STANLEY          N/A     70  40  33 NW5       30.14R
SALMON         PTSUNNY   77  39  25 CALM      29.89F
CHALLIS        CLOUDY    74  42  31 CALM      29.99F
$$

IDZ002-004-006-007-026-031900-
NORTHERN IDAHO


CITY           SKY/WX    TMP DP  RH WIND       PRES   REMARKS
LEWISTON       CLOUDY    81  40  23 NE7       29.79F
LOWELL           N/A     82  46  28 CALM      29.82F
COEUR D`ALENE  MOSUNNY   81  43  26 S5        29.82S
MULLAN PASS    MOSUNNY   79  32  18 CALM      30.05F
$$



USA.gov is the U.S. government's official web portal to all federal, state and local government web resources and services.